MTN005 KLAS-KBZN

Flight info

Callsign MTN005
Flight time 1h 45m
Altitude 35000
Route RATPK3 FRNCK MLF J9 FFU SABAT LOSST1
Aircraft E75L/M-SDE3GILORVW/S

Departure

Time 2026-05-05 13:43
Airport Harry Reid International Airport (KLAS)

Arrival

Time 2026-05-05 15:29
Airport Bozeman Yellowstone International Airport (KBZN)
Time Latitude Longitude Altitude Speed Heading
2026-05-05 13:04 36.08021 -115.13603 2186 ft 0 kts 67°
2026-05-05 13:33 36.08019 -115.13608 2191 ft 3 kts 67°
2026-05-05 13:33 36.08009 -115.13638 2188 ft 4 kts 67°
2026-05-05 13:33 36.07999 -115.13668 2189 ft 2 kts 67°
2026-05-05 13:33 36.07993 -115.13695 2186 ft 4 kts 91°
2026-05-05 13:34 36.08002 -115.13724 2190 ft 3 kts 134°
2026-05-05 13:34 36.08008 -115.13731 2189 ft 0 kts 135°
2026-05-05 13:38 36.07998 -115.13719 2189 ft 8 kts 135°
2026-05-05 13:39 36.07921 -115.13627 2188 ft 21 kts 136°
2026-05-05 13:39 36.07837 -115.13483 2186 ft 21 kts 101°
2026-05-05 13:39 36.07835 -115.13302 2186 ft 21 kts 83°
2026-05-05 13:39 36.07851 -115.13176 2186 ft 0 kts 97°
2026-05-05 13:40 36.07841 -115.13126 2188 ft 14 kts 105°
2026-05-05 13:40 36.07829 -115.13040 2190 ft 18 kts 92°
2026-05-05 13:40 36.07826 -115.12808 2186 ft 35 kts 89°
2026-05-05 13:40 36.07817 -115.12518 2186 ft 31 kts 88°
2026-05-05 13:41 36.07821 -115.12312 2186 ft 15 kts 95°
2026-05-05 13:41 36.07796 -115.12236 2188 ft 11 kts 122°
2026-05-05 13:41 36.07734 -115.12135 2186 ft 13 kts 148°
2026-05-05 13:41 36.07673 -115.12132 2190 ft 14 kts 201°
2026-05-05 13:42 36.07645 -115.12167 2188 ft 0 kts 257°
2026-05-05 13:42 36.07645 -115.12173 2188 ft 0 kts 270°
2026-05-05 13:42 36.07645 -115.12180 2188 ft 10 kts 269°
2026-05-05 13:43 36.07641 -115.12529 2186 ft 71 kts 270°
2026-05-05 13:43 36.07634 -115.13398 2187 ft 130 kts 269°
2026-05-05 13:43 36.07649 -115.14719 2517 ft 162 kts 272°
2026-05-05 13:43 36.07789 -115.16072 3423 ft 165 kts 276°
2026-05-05 13:44 36.07849 -115.17554 3975 ft 180 kts 268°
2026-05-05 13:44 36.07802 -115.19145 4594 ft 191 kts 267°
2026-05-05 13:44 36.07756 -115.20827 5220 ft 201 kts 266°
2026-05-05 13:44 36.07740 -115.22596 5825 ft 211 kts 269°
2026-05-05 13:45 36.07749 -115.24450 6407 ft 220 kts 269°
2026-05-05 13:45 36.07925 -115.26365 6900 ft 232 kts 287°
2026-05-05 13:45 36.08818 -115.28029 7497 ft 236 kts 318°
2026-05-05 13:45 36.10261 -115.28967 8114 ft 236 kts 344°
2026-05-05 13:46 36.11849 -115.29410 8677 ft 238 kts 349°
2026-05-05 13:46 36.13495 -115.29707 9225 ft 241 kts 357°
2026-05-05 13:46 36.15113 -115.29242 9776 ft 242 kts 28°
2026-05-05 13:46 36.16372 -115.27888 10268 ft 243 kts 52°
2026-05-05 13:47 36.17465 -115.26255 10866 ft 250 kts 48°
2026-05-05 13:47 36.18686 -115.24561 11048 ft 280 kts 58°
2026-05-05 13:47 36.19467 -115.22239 11235 ft 306 kts 80°
2026-05-05 13:47 36.19630 -115.19509 11495 ft 329 kts 90°
2026-05-05 13:48 36.19651 -115.16591 11920 ft 346 kts 91°
2026-05-05 13:48 36.19607 -115.13582 12699 ft 352 kts 92°
2026-05-05 13:48 36.19579 -115.10574 13573 ft 356 kts 91°
2026-05-05 13:48 36.19561 -115.07491 14472 ft 359 kts 91°
2026-05-05 13:49 36.19554 -115.04395 15375 ft 362 kts 91°
2026-05-05 13:49 36.19552 -115.01252 16192 ft 367 kts 91°
2026-05-05 13:49 36.19549 -114.98070 16942 ft 373 kts 91°
2026-05-05 13:49 36.19548 -114.94824 17709 ft 379 kts 90°
2026-05-05 13:50 36.19545 -114.91545 18454 ft 383 kts 91°
2026-05-05 13:50 36.19857 -114.88256 19097 ft 390 kts 73°
2026-05-05 13:50 36.21117 -114.85280 19785 ft 394 kts 54°
2026-05-05 13:50 36.22848 -114.82621 20405 ft 399 kts 49°
2026-05-05 13:51 36.24687 -114.80010 20962 ft 405 kts 49°
2026-05-05 13:51 36.26528 -114.77341 21535 ft 409 kts 50°
2026-05-05 13:51 36.28366 -114.74625 22104 ft 414 kts 51°
2026-05-05 13:51 36.30219 -114.71872 22672 ft 418 kts 51°
2026-05-05 13:52 36.32088 -114.69095 23241 ft 422 kts 51°
2026-05-05 13:52 36.33984 -114.66284 23734 ft 427 kts 51°
2026-05-05 13:52 36.35902 -114.63449 24260 ft 431 kts 50°
2026-05-05 13:52 36.37973 -114.60736 24757 ft 435 kts 43°
2026-05-05 13:53 36.40320 -114.58425 25249 ft 439 kts 36°
2026-05-05 13:53 36.42826 -114.56229 25727 ft 443 kts 35°
2026-05-05 13:53 36.45333 -114.53978 26188 ft 447 kts 36°
2026-05-05 13:53 36.47836 -114.51661 26627 ft 451 kts 37°
2026-05-05 13:54 36.50340 -114.49305 27145 ft 451 kts 37°
2026-05-05 13:54 36.52838 -114.46940 27738 ft 451 kts 37°
2026-05-05 13:54 36.55369 -114.44645 28298 ft 450 kts 34°
2026-05-05 13:54 36.58017 -114.42563 28858 ft 450 kts 31°
2026-05-05 13:55 36.60695 -114.40547 29442 ft 450 kts 31°
2026-05-05 13:55 36.63369 -114.38517 29983 ft 450 kts 31°
2026-05-05 13:55 36.66042 -114.36466 30386 ft 452 kts 31°
2026-05-05 13:55 36.68718 -114.34399 30776 ft 454 kts 31°
2026-05-05 13:56 36.71403 -114.32316 31153 ft 455 kts 31°
2026-05-05 13:56 36.74100 -114.30222 31537 ft 457 kts 31°
2026-05-05 13:56 36.76801 -114.28122 31934 ft 458 kts 31°
2026-05-05 13:56 36.79506 -114.26017 32308 ft 459 kts 31°
2026-05-05 13:57 36.82219 -114.23904 32694 ft 460 kts 31°
2026-05-05 13:57 36.84936 -114.21785 32980 ft 463 kts 31°
2026-05-05 13:57 36.90521 -114.17430 32992 ft 483 kts 31°
2026-05-05 13:58 36.96320 -114.12897 32882 ft 497 kts 31°
2026-05-05 13:58 37.02210 -114.08282 32878 ft 500 kts 31°
2026-05-05 13:59 37.11005 -114.01376 32892 ft 499 kts 31°
2026-05-05 14:00 37.18867 -113.95188 32890 ft 498 kts 31°
2026-05-05 14:00 37.25684 -113.89808 32889 ft 497 kts 31°
2026-05-05 14:01 37.31535 -113.85184 32903 ft 496 kts 31°
2026-05-05 14:01 37.37373 -113.80560 32905 ft 495 kts 31°
2026-05-05 14:02 37.43210 -113.75930 32914 ft 495 kts 31°
2026-05-05 14:02 37.48992 -113.71332 32916 ft 495 kts 31°
2026-05-05 14:03 37.54798 -113.66707 32915 ft 494 kts 31°
2026-05-05 14:03 37.60596 -113.62080 32923 ft 492 kts 32°
2026-05-05 14:04 37.66386 -113.57451 32922 ft 492 kts 32°
2026-05-05 14:04 37.72171 -113.52825 32924 ft 490 kts 32°
2026-05-05 14:05 37.77931 -113.48222 32929 ft 489 kts 32°
2026-05-05 14:05 37.83681 -113.43617 32931 ft 488 kts 32°
2026-05-05 14:06 37.89410 -113.39019 32928 ft 487 kts 32°
2026-05-05 14:06 37.95092 -113.34452 32928 ft 486 kts 32°
2026-05-05 14:07 38.00792 -113.29861 32918 ft 485 kts 32°
2026-05-05 14:07 38.06479 -113.25273 32909 ft 484 kts 32°
2026-05-05 14:08 38.12153 -113.20685 32910 ft 482 kts 32°
2026-05-05 14:08 38.17805 -113.16106 32915 ft 481 kts 32°
2026-05-05 14:09 38.23451 -113.11526 32924 ft 480 kts 32°
2026-05-05 14:09 38.29078 -113.06950 32933 ft 479 kts 33°
2026-05-05 14:10 38.34665 -113.02399 32947 ft 479 kts 33°
2026-05-05 14:10 38.40595 -112.98595 32955 ft 478 kts 22°
2026-05-05 14:11 38.46752 -112.95434 32937 ft 476 kts 22°
2026-05-05 14:11 38.52865 -112.92171 32935 ft 475 kts 23°
2026-05-05 14:12 38.58954 -112.88872 32918 ft 474 kts 23°
2026-05-05 14:12 38.65037 -112.85566 32901 ft 474 kts 23°
2026-05-05 14:13 38.71108 -112.82260 32879 ft 474 kts 23°
2026-05-05 14:13 38.77183 -112.78945 32860 ft 474 kts 23°
2026-05-05 14:14 38.83219 -112.75646 32867 ft 474 kts 23°
2026-05-05 14:14 38.89288 -112.72323 32884 ft 474 kts 23°
2026-05-05 14:15 38.95347 -112.68998 32889 ft 473 kts 23°
2026-05-05 14:15 39.01399 -112.65672 32892 ft 472 kts 23°
2026-05-05 14:16 39.06419 -112.62908 32894 ft 472 kts 23°
2026-05-05 14:16 39.12446 -112.59583 32888 ft 471 kts 23°
2026-05-05 14:17 39.18479 -112.56249 32892 ft 471 kts 23°
2026-05-05 14:17 39.24495 -112.52919 32908 ft 470 kts 23°
2026-05-05 14:18 39.30465 -112.49608 32923 ft 469 kts 23°
2026-05-05 14:18 39.36452 -112.46281 32924 ft 467 kts 23°
2026-05-05 14:19 39.42402 -112.42969 32927 ft 465 kts 23°
2026-05-05 14:19 39.48339 -112.39658 32913 ft 464 kts 23°
2026-05-05 14:20 39.54220 -112.36371 32897 ft 462 kts 23°
2026-05-05 14:20 39.60111 -112.33073 32879 ft 460 kts 23°
2026-05-05 14:21 39.65977 -112.29783 32858 ft 458 kts 23°
2026-05-05 14:21 39.71827 -112.26496 32852 ft 458 kts 23°
2026-05-05 14:22 39.77677 -112.23201 32851 ft 457 kts 23°
2026-05-05 14:22 39.83467 -112.19936 32850 ft 456 kts 23°
2026-05-05 14:23 39.89286 -112.16648 32848 ft 455 kts 23°
2026-05-05 14:23 39.95087 -112.13365 32850 ft 454 kts 23°
2026-05-05 14:24 40.00864 -112.10019 32857 ft 454 kts 25°
2026-05-05 14:24 40.06595 -112.06552 32867 ft 453 kts 24°
2026-05-05 14:25 40.12329 -112.03102 32879 ft 454 kts 24°
2026-05-05 14:25 40.18076 -111.99645 32890 ft 454 kts 24°
2026-05-05 14:26 40.23823 -111.96183 32900 ft 455 kts 24°
2026-05-05 14:26 40.29673 -111.93240 32914 ft 454 kts 12°
2026-05-05 14:27 40.35941 -111.92675 32913 ft 452 kts 356°
2026-05-05 14:27 40.42227 -111.92867 32880 ft 452 kts
2026-05-05 14:28 40.48508 -111.92554 32902 ft 451 kts
2026-05-05 14:28 40.54405 -111.92173 32908 ft 450 kts
2026-05-05 14:29 40.60667 -111.91756 32934 ft 450 kts
2026-05-05 14:29 40.66919 -111.91332 32927 ft 449 kts
2026-05-05 14:30 40.73171 -111.90908 32900 ft 449 kts
2026-05-05 14:30 40.79410 -111.90482 32895 ft 448 kts
2026-05-05 14:31 40.85650 -111.90056 32905 ft 448 kts
2026-05-05 14:31 40.91830 -111.89634 32877 ft 447 kts
2026-05-05 14:32 40.98050 -111.89207 32883 ft 447 kts
2026-05-05 14:32 41.04258 -111.88782 32903 ft 446 kts
2026-05-05 14:33 41.10450 -111.88356 32907 ft 445 kts
2026-05-05 14:33 41.16634 -111.87930 32901 ft 444 kts
2026-05-05 14:34 41.22764 -111.87508 32883 ft 443 kts
2026-05-05 14:34 41.28928 -111.87082 32870 ft 442 kts
2026-05-05 14:35 41.35068 -111.86656 32857 ft 441 kts
2026-05-05 14:35 41.41193 -111.86232 32855 ft 441 kts
2026-05-05 14:36 41.47323 -111.85806 32871 ft 440 kts
2026-05-05 14:36 41.53400 -111.85382 32876 ft 440 kts
2026-05-05 14:37 41.59508 -111.84956 32878 ft 439 kts
2026-05-05 14:37 41.65605 -111.84529 32891 ft 438 kts
2026-05-05 14:38 41.71696 -111.84093 32908 ft 438 kts
2026-05-05 14:38 41.77780 -111.83662 32905 ft 438 kts
2026-05-05 14:39 41.83858 -111.83234 32907 ft 437 kts
2026-05-05 14:39 41.89936 -111.82806 32901 ft 437 kts
2026-05-05 14:40 41.96012 -111.82377 32886 ft 437 kts
2026-05-05 14:40 42.02086 -111.81948 32876 ft 437 kts
2026-05-05 14:41 42.08155 -111.81519 32862 ft 436 kts
2026-05-05 14:41 42.14213 -111.81089 32848 ft 435 kts
2026-05-05 14:42 42.20255 -111.80659 32845 ft 434 kts
2026-05-05 14:42 42.26283 -111.80229 32852 ft 433 kts
2026-05-05 14:43 42.32287 -111.79801 32849 ft 431 kts
2026-05-05 14:43 42.38231 -111.79377 32850 ft 430 kts
2026-05-05 14:44 42.44195 -111.78950 32852 ft 428 kts
2026-05-05 14:44 42.50133 -111.78523 32851 ft 427 kts
2026-05-05 14:45 42.56054 -111.78098 32848 ft 425 kts
2026-05-05 14:45 42.61954 -111.77673 32852 ft 424 kts
2026-05-05 14:46 42.67830 -111.77248 32853 ft 422 kts
2026-05-05 14:46 42.73684 -111.76825 32854 ft 420 kts
2026-05-05 14:47 42.79504 -111.76403 32864 ft 418 kts
2026-05-05 14:47 42.85300 -111.75983 32869 ft 416 kts
2026-05-05 14:48 42.91062 -111.75564 32866 ft 414 kts
2026-05-05 14:48 42.96798 -111.75146 32876 ft 412 kts
2026-05-05 14:49 43.02509 -111.74729 32877 ft 410 kts
2026-05-05 14:49 43.08200 -111.74312 32880 ft 408 kts
2026-05-05 14:50 43.13857 -111.73898 32885 ft 407 kts
2026-05-05 14:50 43.19503 -111.73483 32883 ft 405 kts
2026-05-05 14:51 43.25116 -111.73070 32890 ft 403 kts
2026-05-05 14:51 43.30711 -111.72658 32913 ft 401 kts
2026-05-05 14:52 43.36275 -111.72247 32928 ft 400 kts
2026-05-05 14:52 43.41824 -111.71836 32936 ft 399 kts
2026-05-05 14:53 43.47352 -111.71427 32942 ft 397 kts
2026-05-05 14:53 43.52856 -111.71018 32944 ft 395 kts
2026-05-05 14:54 43.58301 -111.70613 32938 ft 394 kts
2026-05-05 14:54 43.63766 -111.70206 32956 ft 392 kts
2026-05-05 14:55 43.69209 -111.69799 32966 ft 391 kts
2026-05-05 14:55 43.74641 -111.69393 32984 ft 390 kts
2026-05-05 14:56 43.80053 -111.68987 32993 ft 389 kts
2026-05-05 14:56 43.85452 -111.68583 32994 ft 388 kts
2026-05-05 14:57 43.90832 -111.68178 32982 ft 386 kts
2026-05-05 14:57 43.96189 -111.67774 32966 ft 385 kts
2026-05-05 14:58 44.01513 -111.67301 32930 ft 375 kts
2026-05-05 14:58 44.03976 -111.66451 32945 ft 356 kts 17°
2026-05-05 14:58 44.06157 -111.64950 32952 ft 346 kts 27°
2026-05-05 14:59 44.10187 -111.61368 32962 ft 344 kts 23°
2026-05-05 14:59 44.14456 -111.58400 32917 ft 343 kts 20°
2026-05-05 15:00 44.18050 -111.56112 32929 ft 341 kts 19°
2026-05-05 15:00 44.23102 -111.52933 32930 ft 341 kts 19°
2026-05-05 15:01 44.27418 -111.50214 32943 ft 340 kts 19°
2026-05-05 15:01 44.31737 -111.47489 32950 ft 340 kts 19°
2026-05-05 15:02 44.36052 -111.44762 32980 ft 341 kts 19°
2026-05-05 15:02 44.40337 -111.42047 32989 ft 339 kts 19°
2026-05-05 15:03 44.42438 -111.40709 32942 ft 323 kts 19°
2026-05-05 15:03 44.44440 -111.39432 32780 ft 310 kts 19°
2026-05-05 15:03 44.46368 -111.38206 32503 ft 300 kts 18°
2026-05-05 15:03 44.48246 -111.37014 32147 ft 294 kts 18°
2026-05-05 15:04 44.50098 -111.35841 31721 ft 290 kts 18°
2026-05-05 15:04 44.51932 -111.34679 31200 ft 290 kts 18°
2026-05-05 15:04 44.53770 -111.33514 30678 ft 290 kts 18°
2026-05-05 15:04 44.55617 -111.32341 30125 ft 292 kts 18°
2026-05-05 15:05 44.59385 -111.29944 28599 ft 302 kts 18°
2026-05-05 15:05 44.61323 -111.28710 27723 ft 310 kts 18°
2026-05-05 15:05 44.62639 -111.27873 27161 ft 318 kts 18°
2026-05-05 15:06 44.64655 -111.26584 26869 ft 323 kts 18°
2026-05-05 15:06 44.66747 -111.25250 26389 ft 335 kts 19°
2026-05-05 15:06 44.68914 -111.23862 25915 ft 340 kts 19°
2026-05-05 15:06 44.71067 -111.22477 25474 ft 341 kts 19°
2026-05-05 15:07 44.73193 -111.21110 25029 ft 341 kts 19°
2026-05-05 15:07 44.75348 -111.19723 24582 ft 341 kts 19°
2026-05-05 15:07 44.77503 -111.18338 24141 ft 341 kts 18°
2026-05-05 15:07 44.79659 -111.16953 23690 ft 341 kts 18°
2026-05-05 15:08 44.81810 -111.15568 23208 ft 339 kts 18°
2026-05-05 15:08 44.83944 -111.14192 22809 ft 336 kts 18°
2026-05-05 15:08 44.86069 -111.12823 22348 ft 335 kts 18°
2026-05-05 15:08 44.88173 -111.11466 21931 ft 332 kts 18°
2026-05-05 15:09 44.90273 -111.10108 21469 ft 330 kts 18°
2026-05-05 15:09 44.92349 -111.08767 21070 ft 327 kts 18°
2026-05-05 15:09 44.94414 -111.07429 20633 ft 326 kts 18°
2026-05-05 15:09 44.96466 -111.06100 20205 ft 323 kts 18°
2026-05-05 15:10 44.98501 -111.04784 19792 ft 320 kts 18°
2026-05-05 15:10 45.00514 -111.03479 19383 ft 318 kts 17°
2026-05-05 15:10 45.02524 -111.02177 18981 ft 317 kts 17°
2026-05-05 15:10 45.04526 -111.00879 18513 ft 316 kts 17°
2026-05-05 15:11 45.06510 -110.99581 18158 ft 312 kts 17°
2026-05-05 15:11 45.08483 -110.98299 17714 ft 312 kts 17°
2026-05-05 15:11 45.10444 -110.97022 17271 ft 310 kts 18°
2026-05-05 15:11 45.12381 -110.95823 17103 ft 297 kts 13°
2026-05-05 15:12 45.14347 -110.95174 16896 ft 287 kts 359°
2026-05-05 15:12 45.16307 -110.95267 16806 ft 278 kts 346°
2026-05-05 15:12 45.18157 -110.96026 16750 ft 278 kts 337°
2026-05-05 15:12 45.19980 -110.96964 16628 ft 279 kts 338°
2026-05-05 15:13 45.21835 -110.97780 16584 ft 281 kts 341°
2026-05-05 15:13 45.23727 -110.98494 16457 ft 281 kts 342°
2026-05-05 15:13 45.25593 -110.99146 16385 ft 269 kts 343°
2026-05-05 15:13 45.27364 -110.99740 16346 ft 256 kts 343°
2026-05-05 15:14 45.29077 -111.00313 16190 ft 249 kts 343°
2026-05-05 15:14 45.30736 -111.00875 16162 ft 244 kts 343°
2026-05-05 15:14 45.32393 -111.01429 16114 ft 246 kts 343°
2026-05-05 15:14 45.34069 -111.01997 16064 ft 249 kts 343°
2026-05-05 15:15 45.35764 -111.02561 15964 ft 250 kts 343°
2026-05-05 15:15 45.37455 -111.03125 15908 ft 251 kts 343°
2026-05-05 15:15 45.39154 -111.03698 15735 ft 250 kts 343°
2026-05-05 15:15 45.40833 -111.04264 15733 ft 247 kts 343°
2026-05-05 15:16 45.42514 -111.04823 15609 ft 249 kts 344°
2026-05-05 15:16 45.44191 -111.05381 15575 ft 247 kts 344°
2026-05-05 15:16 45.45871 -111.05948 15482 ft 249 kts 344°
2026-05-05 15:16 45.47561 -111.06517 15413 ft 249 kts 344°
2026-05-05 15:17 45.49224 -111.07072 15324 ft 248 kts 344°
2026-05-05 15:17 45.50903 -111.07635 15274 ft 248 kts 344°
2026-05-05 15:17 45.52573 -111.08198 15203 ft 244 kts 345°
2026-05-05 15:17 45.54228 -111.08749 15157 ft 245 kts 345°
2026-05-05 15:18 45.55869 -111.09295 14955 ft 237 kts 345°
2026-05-05 15:18 45.57454 -111.09826 14743 ft 231 kts 345°
2026-05-05 15:18 45.59015 -111.10350 14566 ft 231 kts 345°
2026-05-05 15:18 45.60581 -111.10880 14342 ft 232 kts 345°
2026-05-05 15:19 45.62158 -111.11428 13998 ft 234 kts 342°
2026-05-05 15:19 45.63648 -111.12363 13491 ft 237 kts 334°
2026-05-05 15:19 45.65154 -111.13409 12570 ft 243 kts 329°
2026-05-05 15:19 45.66378 -111.15107 11624 ft 250 kts 310°
2026-05-05 15:20 45.67506 -111.17029 10829 ft 251 kts 312°
2026-05-05 15:20 45.68588 -111.18827 10583 ft 225 kts 312°
2026-05-05 15:20 45.69564 -111.20455 10350 ft 209 kts 312°
2026-05-05 15:20 45.70508 -111.22034 10148 ft 213 kts 312°
2026-05-05 15:21 45.71488 -111.23667 9835 ft 217 kts 312°
2026-05-05 15:21 45.72465 -111.25301 9570 ft 216 kts 312°
2026-05-05 15:21 45.73458 -111.26915 9347 ft 216 kts 313°
2026-05-05 15:21 45.74455 -111.28527 9058 ft 216 kts 313°
2026-05-05 15:22 45.75432 -111.30116 8815 ft 215 kts 313°
2026-05-05 15:22 45.76374 -111.31658 8604 ft 197 kts 313°
2026-05-05 15:22 45.77266 -111.33130 8345 ft 195 kts 313°
2026-05-05 15:22 45.78147 -111.34598 8076 ft 194 kts 313°
2026-05-05 15:23 45.79024 -111.36063 7862 ft 193 kts 314°
2026-05-05 15:23 45.79894 -111.37536 7607 ft 194 kts 313°
2026-05-05 15:23 45.80770 -111.38991 7370 ft 192 kts 317°
2026-05-05 15:23 45.81908 -111.39845 7097 ft 185 kts 354°
2026-05-05 15:24 45.83098 -111.39416 6857 ft 178 kts 33°
2026-05-05 15:24 45.84081 -111.38331 6654 ft 179 kts 38°
2026-05-05 15:24 45.85073 -111.37219 6396 ft 184 kts 38°
2026-05-05 15:24 45.86087 -111.36088 6079 ft 184 kts 37°
2026-05-05 15:25 45.87082 -111.34987 5822 ft 178 kts 37°
2026-05-05 15:25 45.87953 -111.33773 5511 ft 176 kts 58°
2026-05-05 15:25 45.88096 -111.32057 5238 ft 180 kts 103°
2026-05-05 15:25 45.87663 -111.30399 5210 ft 172 kts 103°
2026-05-05 15:26 45.87392 -111.28709 5223 ft 177 kts 110°
2026-05-05 15:26 45.86574 -111.27372 5219 ft 182 kts 140°
2026-05-05 15:26 45.85597 -111.26234 5265 ft 177 kts 135°
2026-05-05 15:26 45.84755 -111.24985 5260 ft 172 kts 131°
2026-05-05 15:27 45.83932 -111.23805 5258 ft 161 kts 135°
2026-05-05 15:27 45.83136 -111.22723 5216 ft 152 kts 134°
2026-05-05 15:27 45.82408 -111.21703 5170 ft 143 kts 135°
2026-05-05 15:27 45.81673 -111.20729 5035 ft 145 kts 135°
2026-05-05 15:28 45.80967 -111.19688 4933 ft 149 kts 131°
2026-05-05 15:28 45.80247 -111.18607 4857 ft 149 kts 135°
2026-05-05 15:28 45.79488 -111.17612 4760 ft 147 kts 135°
2026-05-05 15:28 45.78759 -111.16552 4543 ft 150 kts 137°
2026-05-05 15:29 45.78039 -111.15543 4445 ft 137 kts 137°
2026-05-05 15:29 45.77480 -111.14775 4445 ft 77 kts 141°
2026-05-05 15:29 45.77223 -111.14439 4443 ft 41 kts 133°
2026-05-05 15:29 45.77025 -111.14252 4442 ft 27 kts 202°
2026-05-05 15:30 45.76933 -111.14407 4443 ft 19 kts 261°
2026-05-05 15:30 45.76952 -111.14469 4443 ft 0 kts 315°
2026-05-05 15:30 45.76981 -111.14509 4443 ft 14 kts 315°
2026-05-05 15:30 45.77089 -111.14664 4443 ft 30 kts 315°
2026-05-05 15:31 45.77262 -111.14906 4443 ft 38 kts 314°
2026-05-05 15:31 45.77456 -111.15170 4443 ft 37 kts 315°
2026-05-05 15:31 45.77639 -111.15430 4443 ft 37 kts 316°
2026-05-05 15:31 45.77810 -111.15673 4443 ft 31 kts 302°
2026-05-05 15:32 45.77806 -111.15810 4443 ft 3 kts 269°
2026-05-05 15:32 45.77832 -111.15878 4443 ft 9 kts 310°
2026-05-05 15:32 45.77891 -111.15951 4443 ft 12 kts 318°
2026-05-05 15:32 45.77901 -111.15996 4443 ft 7 kts 255°
2026-05-05 15:33 45.77879 -111.16044 4444 ft 0 kts 231°
2026-05-05 15:33 45.77878 -111.16045 4444 ft 0 kts 231°